User: anonymous   Login
Location: Unspecified
(0.0000°N, 0.0000°E)
Time: 13:56:03
(UTC+00:00)
Language:

A-11 Canister half - Orbit

View from above orbital plane
View from above orbital plane
View from above satellite
View from above satellite

Ground track
Ground track

The orbit data is extracted from the following two-line orbital elements,

1    51U 60009C   17085.32093989 -.00000048 +00000-0 +35193-3 0  9992
2    51 047.2147 035.3338 0106988 257.8267 101.0520 12.18268367520344
Epoch (UTC): 26 March 2017 07:42:09
Eccentricity: 0.0106988
inclination: 47.2147°
perigee height: 1515 km
apogee height: 1685 km
right ascension of ascending node: 35.3338°
argument of perigee: 257.8267°
revolutions per day: 12.18268367
mean anomaly at epoch: 101.0520°
orbit number at epoch: 52034

The dashed part of the orbit path shows where the satellite is in the earth's shadow,  

DLR